Year,Month,Day,Hour,Minute,Value (Times are PST for temperature in C)
2016,05,20,00,00,10.60
2016,05,20,00,01,10.60
2016,05,20,00,02,10.60
2016,05,20,00,03,10.60
2016,05,20,00,04,10.60
2016,05,20,00,05,10.60
2016,05,20,00,06,10.60
2016,05,20,00,07,10.60
2016,05,20,00,08,10.50
2016,05,20,00,09,10.40
2016,05,20,00,10,10.40
2016,05,20,00,11,10.40
2016,05,20,00,12,10.40
2016,05,20,00,13,10.40
2016,05,20,00,14,10.40
2016,05,20,00,15,10.40
2016,05,20,00,16,10.40
2016,05,20,00,17,10.40
2016,05,20,00,18,10.30
2016,05,20,00,19,10.30
2016,05,20,00,20,10.30
2016,05,20,00,21,10.30
2016,05,20,00,22,10.30
2016,05,20,00,23,10.20
2016,05,20,00,24,10.20
2016,05,20,00,25,10.20
2016,05,20,00,26,10.20
2016,05,20,00,27,10.20
2016,05,20,00,28,10.20
2016,05,20,00,29,10.10
2016,05,20,00,30,10.10
2016,05,20,00,31,10.10
2016,05,20,00,32,10.10
2016,05,20,00,33,10.10
2016,05,20,00,34,10.10
2016,05,20,00,35,10.10
2016,05,20,00,36,10.10
2016,05,20,00,37,10.10
2016,05,20,00,38,10.00
2016,05,20,00,39,9.90
2016,05,20,00,40,9.90
2016,05,20,00,41,9.90
2016,05,20,00,42,9.90
2016,05,20,00,43,9.90
2016,05,20,00,44,9.90
2016,05,20,00,45,9.90
2016,05,20,00,46,9.90
2016,05,20,00,47,9.90
2016,05,20,00,48,9.80
2016,05,20,00,49,9.80
2016,05,20,00,50,9.80
2016,05,20,00,51,9.70
2016,05,20,00,52,9.70
2016,05,20,00,53,9.70
2016,05,20,00,54,9.70
2016,05,20,00,55,9.70
2016,05,20,00,56,9.70
2016,05,20,00,57,9.70
2016,05,20,00,58,9.60
2016,05,20,00,59,9.60
2016,05,20,01,00,9.60
2016,05,20,01,01,9.50
2016,05,20,01,02,9.50
2016,05,20,01,03,9.50
2016,05,20,01,04,9.50
2016,05,20,01,05,9.40
2016,05,20,01,06,9.40
2016,05,20,01,07,9.40
2016,05,20,01,08,9.30
2016,05,20,01,09,9.30
2016,05,20,01,10,9.30
2016,05,20,01,11,9.30
2016,05,20,01,12,9.20
2016,05,20,01,13,9.20
2016,05,20,01,14,9.20
2016,05,20,01,15,9.20
2016,05,20,01,16,9.20
2016,05,20,01,17,9.20
2016,05,20,01,18,9.20
2016,05,20,01,19,9.20
2016,05,20,01,20,9.10
2016,05,20,01,21,9.10
2016,05,20,01,22,9.10
2016,05,20,01,23,9.10
2016,05,20,01,24,9.10
2016,05,20,01,25,9.00
2016,05,20,01,26,9.00
2016,05,20,01,27,9.00
2016,05,20,01,28,9.00
2016,05,20,01,29,9.00
2016,05,20,01,30,8.90
2016,05,20,01,31,8.90
2016,05,20,01,32,8.90
2016,05,20,01,33,8.90
2016,05,20,01,34,8.90
2016,05,20,01,35,8.90
2016,05,20,01,36,8.80
2016,05,20,01,37,8.80
2016,05,20,01,38,8.80
2016,05,20,01,39,8.80
2016,05,20,01,40,8.80
2016,05,20,01,41,8.80
2016,05,20,01,42,8.80
2016,05,20,01,43,8.70
2016,05,20,01,44,8.70
2016,05,20,01,45,8.70
2016,05,20,01,46,8.70
2016,05,20,01,47,8.70
2016,05,20,01,48,8.70
2016,05,20,01,49,8.70
2016,05,20,01,50,8.70
2016,05,20,01,51,8.60
2016,05,20,01,52,8.60
2016,05,20,01,53,8.60
2016,05,20,01,54,8.60
2016,05,20,01,55,8.50
2016,05,20,01,56,8.50
2016,05,20,01,57,8.50
2016,05,20,01,58,8.40
2016,05,20,01,59,8.40
2016,05,20,02,00,8.40
2016,05,20,02,01,8.30
2016,05,20,02,02,8.30
2016,05,20,02,03,8.30
2016,05,20,02,04,8.30
2016,05,20,02,05,8.20
2016,05,20,02,06,8.20
2016,05,20,02,07,8.20
2016,05,20,02,08,8.20
2016,05,20,02,09,8.20
2016,05,20,02,10,8.20
2016,05,20,02,11,8.20
2016,05,20,02,12,8.10
2016,05,20,02,13,8.10
2016,05,20,02,14,8.10
2016,05,20,02,15,8.10
2016,05,20,02,16,8.10
2016,05,20,02,17,8.00
2016,05,20,02,18,8.00
2016,05,20,02,19,8.00
2016,05,20,02,20,8.00
2016,05,20,02,21,8.00
2016,05,20,02,22,7.90
2016,05,20,02,23,7.90
2016,05,20,02,24,7.90
2016,05,20,02,25,7.90
2016,05,20,02,26,7.90
2016,05,20,02,27,7.90
2016,05,20,02,28,7.80
2016,05,20,02,29,7.80
2016,05,20,02,30,7.80
2016,05,20,02,31,7.80
2016,05,20,02,32,7.80
2016,05,20,02,33,7.80
2016,05,20,02,34,7.80
2016,05,20,02,35,7.80
2016,05,20,02,36,7.80
2016,05,20,02,37,7.80
2016,05,20,02,38,7.80
2016,05,20,02,39,7.80
2016,05,20,02,40,7.70
2016,05,20,02,41,7.70
2016,05,20,02,42,7.70
2016,05,20,02,43,7.70
2016,05,20,02,44,7.70
2016,05,20,02,45,7.70
2016,05,20,02,46,7.60
2016,05,20,02,47,7.60
2016,05,20,02,48,7.60
2016,05,20,02,49,7.60
2016,05,20,02,50,7.60
2016,05,20,02,51,7.60
2016,05,20,02,52,7.60
2016,05,20,02,53,7.60
2016,05,20,02,54,7.60
2016,05,20,02,55,7.60
2016,05,20,02,56,7.60
2016,05,20,02,57,7.60
2016,05,20,02,58,7.60
2016,05,20,02,59,7.60
2016,05,20,03,00,7.60
2016,05,20,03,01,7.60
2016,05,20,03,02,7.50
2016,05,20,03,03,7.50
2016,05,20,03,04,7.50
2016,05,20,03,05,7.50
2016,05,20,03,06,7.50
2016,05,20,03,07,7.50
2016,05,20,03,08,7.50
2016,05,20,03,09,7.50
2016,05,20,03,10,7.50
2016,05,20,03,11,7.50
2016,05,20,03,12,7.50
2016,05,20,03,13,7.40
2016,05,20,03,14,7.40
2016,05,20,03,15,7.40
2016,05,20,03,16,7.40
2016,05,20,03,17,7.40
2016,05,20,03,18,7.40
2016,05,20,03,19,7.40
2016,05,20,03,20,7.40
2016,05,20,03,21,7.40
2016,05,20,03,22,7.40
2016,05,20,03,23,7.40
2016,05,20,03,24,7.40
2016,05,20,03,25,7.40
2016,05,20,03,26,7.40
2016,05,20,03,27,7.40
2016,05,20,03,28,7.40
2016,05,20,03,29,7.40
2016,05,20,03,30,7.40
2016,05,20,03,31,7.50
2016,05,20,03,32,7.50
2016,05,20,03,33,7.50
2016,05,20,03,34,7.50
2016,05,20,03,35,7.50
2016,05,20,03,36,7.50
2016,05,20,03,37,7.50
2016,05,20,03,38,7.50
2016,05,20,03,39,7.50
2016,05,20,03,40,7.50
2016,05,20,03,41,7.50
2016,05,20,03,42,7.50
2016,05,20,03,43,7.50
2016,05,20,03,44,7.50
2016,05,20,03,45,7.50
2016,05,20,03,46,7.60
2016,05,20,03,47,7.60
2016,05,20,03,48,7.60
2016,05,20,03,49,7.60
2016,05,20,03,50,7.60
2016,05,20,03,51,7.60
2016,05,20,03,52,7.60
2016,05,20,03,53,7.60
2016,05,20,03,54,7.60
2016,05,20,03,55,7.60
2016,05,20,03,56,7.60
2016,05,20,03,57,7.60
2016,05,20,03,58,7.60
2016,05,20,03,59,7.60
2016,05,20,04,00,7.60
2016,05,20,04,01,7.60
2016,05,20,04,02,7.60
2016,05,20,04,03,7.60
2016,05,20,04,04,7.60
2016,05,20,04,05,7.60
2016,05,20,04,06,7.60
2016,05,20,04,07,7.60
2016,05,20,04,08,7.60
2016,05,20,04,09,7.60
2016,05,20,04,10,7.70
2016,05,20,04,11,7.70
2016,05,20,04,12,7.70
2016,05,20,04,13,7.70
2016,05,20,04,14,7.70
2016,05,20,04,15,7.70
2016,05,20,04,16,7.80
2016,05,20,04,17,7.80
2016,05,20,04,18,7.80
2016,05,20,04,19,7.80
2016,05,20,04,20,7.80
2016,05,20,04,21,7.80
2016,05,20,04,22,7.80
2016,05,20,04,23,7.80
2016,05,20,04,24,7.80
2016,05,20,04,25,7.80
2016,05,20,04,26,7.80
2016,05,20,04,27,7.80
2016,05,20,04,28,7.80
2016,05,20,04,29,7.80
2016,05,20,04,30,7.80
2016,05,20,04,31,7.80
2016,05,20,04,32,7.90
2016,05,20,04,33,7.90
2016,05,20,04,34,7.90
2016,05,20,04,35,7.90
2016,05,20,04,36,7.90
2016,05,20,04,37,7.90
2016,05,20,04,38,7.90
2016,05,20,04,39,7.90
2016,05,20,04,40,7.90
2016,05,20,04,41,7.90
2016,05,20,04,42,7.90
2016,05,20,04,43,7.90
2016,05,20,04,44,7.90
2016,05,20,04,45,7.90
2016,05,20,04,46,8.00
2016,05,20,04,47,8.00
2016,05,20,04,48,8.00
2016,05,20,04,49,8.00
2016,05,20,04,50,8.00
2016,05,20,04,51,8.00
2016,05,20,04,52,8.00
2016,05,20,04,53,8.00
2016,05,20,04,54,8.00
2016,05,20,04,55,8.10
2016,05,20,04,56,8.10
2016,05,20,04,57,8.10
2016,05,20,04,58,8.10
2016,05,20,04,59,8.10
2016,05,20,05,00,8.10
2016,05,20,05,01,8.10
2016,05,20,05,02,8.10
2016,05,20,05,03,8.10
2016,05,20,05,04,8.10
2016,05,20,05,05,8.20
2016,05,20,05,06,8.20
2016,05,20,05,07,8.20
2016,05,20,05,08,8.20
2016,05,20,05,09,8.20
2016,05,20,05,10,8.20
2016,05,20,05,11,8.20
2016,05,20,05,12,8.20
2016,05,20,05,13,8.20
2016,05,20,05,14,8.20
2016,05,20,05,15,8.20
2016,05,20,05,16,8.20
2016,05,20,05,17,8.20
2016,05,20,05,18,8.20
2016,05,20,05,19,8.20
2016,05,20,05,20,8.20
2016,05,20,05,21,8.20
2016,05,20,05,22,8.20
2016,05,20,05,23,8.20
2016,05,20,05,24,8.20
2016,05,20,05,25,8.20
2016,05,20,05,26,8.30
2016,05,20,05,27,8.30
2016,05,20,05,28,8.30
2016,05,20,05,29,8.30
2016,05,20,05,30,8.30
2016,05,20,05,31,8.30
2016,05,20,05,32,8.30
2016,05,20,05,33,8.30
2016,05,20,05,34,8.30
2016,05,20,05,35,8.40
2016,05,20,05,36,8.40
2016,05,20,05,37,8.40
2016,05,20,05,38,8.40
2016,05,20,05,39,8.40
2016,05,20,05,40,8.40
2016,05,20,05,41,8.40
2016,05,20,05,42,8.40
2016,05,20,05,43,8.40
2016,05,20,05,44,8.40
2016,05,20,05,45,8.40
2016,05,20,05,46,8.40
2016,05,20,05,47,8.40
2016,05,20,05,48,8.50
2016,05,20,05,49,8.50
2016,05,20,05,50,8.50
2016,05,20,05,51,8.50
2016,05,20,05,52,8.50
2016,05,20,05,53,8.50
2016,05,20,05,54,8.60
2016,05,20,05,55,8.60
2016,05,20,05,56,8.60
2016,05,20,05,57,8.60
2016,05,20,05,58,8.60
2016,05,20,05,59,8.60
2016,05,20,06,00,8.70
2016,05,20,06,01,8.70
2016,05,20,06,02,8.70
2016,05,20,06,03,8.70
2016,05,20,06,04,8.70
2016,05,20,06,05,8.70
2016,05,20,06,06,8.70
2016,05,20,06,07,8.70
2016,05,20,06,08,8.70
2016,05,20,06,09,8.70
2016,05,20,06,10,8.70
2016,05,20,06,11,8.70
2016,05,20,06,12,8.80
2016,05,20,06,13,8.80
2016,05,20,06,14,8.80
2016,05,20,06,15,8.90
2016,05,20,06,16,8.90
2016,05,20,06,17,8.90
2016,05,20,06,18,8.90
2016,05,20,06,19,9.00
2016,05,20,06,20,9.00
2016,05,20,06,21,9.00
2016,05,20,06,22,9.00
2016,05,20,06,23,9.10
2016,05,20,06,24,9.10
2016,05,20,06,25,9.10
2016,05,20,06,26,9.10
2016,05,20,06,27,9.20
2016,05,20,06,28,9.20
2016,05,20,06,29,9.20
2016,05,20,06,30,9.20
2016,05,20,06,31,9.20
2016,05,20,06,32,9.20
2016,05,20,06,33,9.20
2016,05,20,06,34,9.20
2016,05,20,06,35,9.30
2016,05,20,06,36,9.30
2016,05,20,06,37,9.30
2016,05,20,06,38,9.30
2016,05,20,06,39,9.30
2016,05,20,06,40,9.40
2016,05,20,06,41,9.40
2016,05,20,06,42,9.40
2016,05,20,06,43,9.50
2016,05,20,06,44,9.50
2016,05,20,06,45,9.50
2016,05,20,06,46,9.50
2016,05,20,06,47,9.60
2016,05,20,06,48,9.60
2016,05,20,06,49,9.60
2016,05,20,06,50,9.60
2016,05,20,06,51,9.70
2016,05,20,06,52,9.70
2016,05,20,06,53,9.70
2016,05,20,06,54,9.70
2016,05,20,06,55,9.70
2016,05,20,06,56,9.70
2016,05,20,06,57,9.70
2016,05,20,06,58,9.70
2016,05,20,06,59,9.80
2016,05,20,07,00,9.80
2016,05,20,07,01,9.80
2016,05,20,07,02,9.80
2016,05,20,07,03,9.90
2016,05,20,07,04,9.90
2016,05,20,07,05,9.90
2016,05,20,07,06,9.90
2016,05,20,07,07,9.90
2016,05,20,07,08,9.90
2016,05,20,07,09,9.90
2016,05,20,07,10,10.00
2016,05,20,07,11,10.10
2016,05,20,07,12,10.10
2016,05,20,07,13,10.10
2016,05,20,07,14,10.10
2016,05,20,07,15,10.10
2016,05,20,07,16,10.10
2016,05,20,07,17,10.10
2016,05,20,07,18,10.10
2016,05,20,07,19,10.10
2016,05,20,07,20,10.20
2016,05,20,07,21,10.20
2016,05,20,07,22,10.20
2016,05,20,07,23,10.20
2016,05,20,07,24,10.30
2016,05,20,07,25,10.30
2016,05,20,07,26,10.30
2016,05,20,07,27,10.40
2016,05,20,07,28,10.40
2016,05,20,07,29,10.40
2016,05,20,07,30,10.40
2016,05,20,07,31,10.40
2016,05,20,07,32,10.40
2016,05,20,07,33,10.40
2016,05,20,07,34,10.50
2016,05,20,07,35,10.60
2016,05,20,07,36,10.60
2016,05,20,07,37,10.60
2016,05,20,07,38,10.60
2016,05,20,07,39,10.60
2016,05,20,07,40,10.70
2016,05,20,07,41,10.80
2016,05,20,07,42,10.80
2016,05,20,07,43,10.90
2016,05,20,07,44,10.90
2016,05,20,07,45,10.90
2016,05,20,07,46,10.90
2016,05,20,07,47,10.90
2016,05,20,07,48,11.10
2016,05,20,07,49,11.10
2016,05,20,07,50,11.10
2016,05,20,07,51,11.10
2016,05,20,07,52,11.10
2016,05,20,07,53,11.10
2016,05,20,07,54,11.00
2016,05,20,07,55,10.90
2016,05,20,07,56,11.00
2016,05,20,07,57,11.10
2016,05,20,07,58,11.10
2016,05,20,07,59,11.10
2016,05,20,08,00,11.10
2016,05,20,08,01,11.10
2016,05,20,08,02,11.10
2016,05,20,08,03,11.20
2016,05,20,08,04,11.20
2016,05,20,08,05,11.10
2016,05,20,08,06,11.20
2016,05,20,08,07,11.20
2016,05,20,08,08,11.20
2016,05,20,08,09,11.20
2016,05,20,08,10,11.20
2016,05,20,08,11,11.20
2016,05,20,08,12,11.20
2016,05,20,08,13,11.30
2016,05,20,08,14,11.30
2016,05,20,08,15,11.30
2016,05,20,08,16,11.30
2016,05,20,08,17,11.30
2016,05,20,08,18,11.30
2016,05,20,08,19,11.30
2016,05,20,08,20,11.30
2016,05,20,08,21,11.30
2016,05,20,08,22,11.40
2016,05,20,08,23,11.40
2016,05,20,08,24,11.40
2016,05,20,08,25,11.40
2016,05,20,08,26,11.40
2016,05,20,08,27,11.40
2016,05,20,08,28,11.40
2016,05,20,08,29,11.40
2016,05,20,08,30,11.40
2016,05,20,08,31,11.40
2016,05,20,08,32,11.30
2016,05,20,08,33,11.40
2016,05,20,08,34,11.40
2016,05,20,08,35,11.40
2016,05,20,08,36,11.40
2016,05,20,08,37,11.40
2016,05,20,08,38,11.50
2016,05,20,08,39,11.60
2016,05,20,08,40,11.60
2016,05,20,08,41,11.70
2016,05,20,08,42,11.80
2016,05,20,08,43,11.80
2016,05,20,08,44,11.90
2016,05,20,08,45,11.90
2016,05,20,08,46,11.90
2016,05,20,08,47,11.90
2016,05,20,08,48,11.90
2016,05,20,08,49,12.00
2016,05,20,08,50,12.00
2016,05,20,08,51,12.10
2016,05,20,08,52,12.10
2016,05,20,08,53,12.20
2016,05,20,08,54,12.20
2016,05,20,08,55,12.30
2016,05,20,08,56,12.30
2016,05,20,08,57,12.30
2016,05,20,08,58,12.30
2016,05,20,08,59,12.40
2016,05,20,09,00,12.50
2016,05,20,09,01,12.50
2016,05,20,09,02,12.60
2016,05,20,09,03,12.70
2016,05,20,09,04,12.80
2016,05,20,09,05,13.00
2016,05,20,09,06,13.00
2016,05,20,09,07,13.00
2016,05,20,09,08,13.10
2016,05,20,09,09,13.10
2016,05,20,09,10,13.20
2016,05,20,09,11,13.20
2016,05,20,09,12,13.20
2016,05,20,09,13,13.20
2016,05,20,09,14,13.20
2016,05,20,09,15,13.10
2016,05,20,09,16,13.10
2016,05,20,09,17,13.10
2016,05,20,09,18,13.10
2016,05,20,09,19,13.10
2016,05,20,09,20,13.10
2016,05,20,09,21,13.20
2016,05,20,09,22,13.10
2016,05,20,09,23,13.10
2016,05,20,09,24,13.10
2016,05,20,09,25,13.00
2016,05,20,09,26,12.90
2016,05,20,09,27,12.80
2016,05,20,09,28,12.80
2016,05,20,09,29,12.80
2016,05,20,09,30,12.80
2016,05,20,09,31,12.70
2016,05,20,09,32,12.70
2016,05,20,09,33,12.70
2016,05,20,09,34,12.70
2016,05,20,09,35,12.70
2016,05,20,09,36,12.80
2016,05,20,09,37,12.80
2016,05,20,09,38,12.80
2016,05,20,09,39,12.80
2016,05,20,09,40,12.80
2016,05,20,09,41,12.80
2016,05,20,09,42,12.80
2016,05,20,09,43,12.90
2016,05,20,09,44,12.90
2016,05,20,09,45,12.80
2016,05,20,09,46,12.80
2016,05,20,09,47,12.90
2016,05,20,09,48,12.90
2016,05,20,09,49,12.90
2016,05,20,09,50,13.00
2016,05,20,09,51,13.20
2016,05,20,09,52,13.30
2016,05,20,09,53,13.40
2016,05,20,09,54,13.50
2016,05,20,09,55,13.60
2016,05,20,09,56,13.70
2016,05,20,09,57,13.70
2016,05,20,09,58,13.70
2016,05,20,09,59,13.90
2016,05,20,10,00,14.10
2016,05,20,10,01,14.20
2016,05,20,10,02,14.20
2016,05,20,10,03,14.20
2016,05,20,10,04,14.30
2016,05,20,10,05,14.40
2016,05,20,10,06,14.40
2016,05,20,10,07,14.40
2016,05,20,10,08,14.40
2016,05,20,10,09,14.50
2016,05,20,10,10,14.50
2016,05,20,10,11,14.50
2016,05,20,10,12,14.50
2016,05,20,10,13,14.50
2016,05,20,10,14,14.50
2016,05,20,10,15,14.50
2016,05,20,10,16,14.50
2016,05,20,10,17,14.30
2016,05,20,10,18,14.20
2016,05,20,10,19,14.20
2016,05,20,10,20,14.10
2016,05,20,10,21,13.90
2016,05,20,10,22,13.70
2016,05,20,10,23,13.60
2016,05,20,10,24,13.60
2016,05,20,10,25,13.60
2016,05,20,10,26,13.60
2016,05,20,10,27,13.50
2016,05,20,10,28,13.40
2016,05,20,10,29,13.30
2016,05,20,10,30,13.30
2016,05,20,10,31,13.30
2016,05,20,10,32,13.30
2016,05,20,10,33,13.40
2016,05,20,10,34,13.40
2016,05,20,10,35,13.50
2016,05,20,10,36,13.50
2016,05,20,10,37,13.60
2016,05,20,10,38,13.60
2016,05,20,10,39,13.70
2016,05,20,10,40,13.70
2016,05,20,10,41,13.60
2016,05,20,10,42,13.50
2016,05,20,10,43,13.40
2016,05,20,10,44,13.30
2016,05,20,10,45,13.20
2016,05,20,10,46,13.10
2016,05,20,10,47,13.00
2016,05,20,10,48,13.00
2016,05,20,10,49,12.90
2016,05,20,10,50,12.90
2016,05,20,10,51,12.80
2016,05,20,10,52,12.60
2016,05,20,10,53,12.60
2016,05,20,10,54,12.50
2016,05,20,10,55,12.50
2016,05,20,10,56,12.60
2016,05,20,10,57,12.60
2016,05,20,10,58,12.70
2016,05,20,10,59,12.80
2016,05,20,11,00,12.80
2016,05,20,11,01,12.90
2016,05,20,11,02,12.90
2016,05,20,11,03,13.00
2016,05,20,11,04,13.00
2016,05,20,11,05,13.00
2016,05,20,11,06,13.00
2016,05,20,11,07,13.00
2016,05,20,11,08,13.00
2016,05,20,11,09,13.10
2016,05,20,11,10,13.10
2016,05,20,11,11,13.30
2016,05,20,11,12,13.40
2016,05,20,11,13,13.50
2016,05,20,11,14,13.60
2016,05,20,11,15,13.70
2016,05,20,11,16,13.80
2016,05,20,11,17,13.90
2016,05,20,11,18,13.90
2016,05,20,11,19,14.00
2016,05,20,11,20,14.10
2016,05,20,11,21,14.20
2016,05,20,11,22,14.10
2016,05,20,11,23,14.20
2016,05,20,11,24,14.20
2016,05,20,11,25,14.30
2016,05,20,11,26,14.30
2016,05,20,11,27,14.20
2016,05,20,11,28,14.20
2016,05,20,11,29,14.20
2016,05,20,11,30,14.10
2016,05,20,11,31,14.10
2016,05,20,11,32,14.20
2016,05,20,11,33,14.20
2016,05,20,11,34,14.40
2016,05,20,11,35,14.60
2016,05,20,11,36,14.80
2016,05,20,11,37,14.90
2016,05,20,11,38,15.00
2016,05,20,11,39,15.10
2016,05,20,11,40,15.10
2016,05,20,11,41,15.10
2016,05,20,11,42,14.90
2016,05,20,11,43,14.70
2016,05,20,11,44,14.60
2016,05,20,11,45,14.60
2016,05,20,11,46,14.60
2016,05,20,11,47,14.60
2016,05,20,11,48,14.70
2016,05,20,11,49,14.70
2016,05,20,11,50,14.70
2016,05,20,11,51,14.70
2016,05,20,11,52,14.70
2016,05,20,11,53,14.60
2016,05,20,11,54,14.60
2016,05,20,11,55,14.60
2016,05,20,11,56,14.70
2016,05,20,11,57,14.80
2016,05,20,11,58,15.00
2016,05,20,11,59,15.10
2016,05,20,12,00,15.20
2016,05,20,12,01,15.30
2016,05,20,12,02,15.30
2016,05,20,12,03,15.30
2016,05,20,12,04,15.30
2016,05,20,12,05,15.30
2016,05,20,12,06,15.40
2016,05,20,12,07,15.40
2016,05,20,12,08,15.30
2016,05,20,12,09,15.30
2016,05,20,12,10,15.20
2016,05,20,12,11,15.20
2016,05,20,12,12,15.20
2016,05,20,12,13,15.20
2016,05,20,12,14,15.30
2016,05,20,12,15,15.20
2016,05,20,12,16,15.20
2016,05,20,12,17,15.30
2016,05,20,12,18,15.50
2016,05,20,12,19,15.60
2016,05,20,12,20,15.80
2016,05,20,12,21,15.90
2016,05,20,12,22,16.10
2016,05,20,12,23,16.20
2016,05,20,12,24,16.30
2016,05,20,12,25,16.40
2016,05,20,12,26,16.50
2016,05,20,12,27,16.50
2016,05,20,12,28,16.40
2016,05,20,12,29,16.30
2016,05,20,12,30,16.20
2016,05,20,12,31,16.30
2016,05,20,12,32,16.20
2016,05,20,12,33,16.10
2016,05,20,12,34,16.10
2016,05,20,12,35,16.10
2016,05,20,12,36,15.90
2016,05,20,12,37,15.80
2016,05,20,12,38,15.80
2016,05,20,12,39,15.80
2016,05,20,12,40,15.80
2016,05,20,12,41,15.90
2016,05,20,12,42,16.00
2016,05,20,12,43,16.20
2016,05,20,12,44,16.30
2016,05,20,12,45,16.50
2016,05,20,12,46,16.70
2016,05,20,12,47,16.70
2016,05,20,12,48,16.80
2016,05,20,12,49,16.90
2016,05,20,12,50,16.90
2016,05,20,12,51,16.90
2016,05,20,12,52,16.80
2016,05,20,12,53,16.70
2016,05,20,12,54,16.70
2016,05,20,12,55,16.70
2016,05,20,12,56,16.70
2016,05,20,12,57,16.70
2016,05,20,12,58,16.50
2016,05,20,12,59,16.40
2016,05,20,13,00,16.40
2016,05,20,13,01,16.40
2016,05,20,13,02,16.40
2016,05,20,13,03,16.50
2016,05,20,13,04,16.60
2016,05,20,13,05,16.60
2016,05,20,13,06,16.70
2016,05,20,13,07,16.70
2016,05,20,13,08,16.80
2016,05,20,13,09,16.80
2016,05,20,13,10,16.80
2016,05,20,13,11,16.90
2016,05,20,13,12,17.00
2016,05,20,13,13,17.00
2016,05,20,13,14,17.10
2016,05,20,13,15,17.00
2016,05,20,13,16,17.00
2016,05,20,13,17,16.90
2016,05,20,13,18,16.90
2016,05,20,13,19,16.70
2016,05,20,13,20,16.40
2016,05,20,13,21,16.20
2016,05,20,13,22,16.10
2016,05,20,13,23,16.10
2016,05,20,13,24,16.00
2016,05,20,13,25,15.80
2016,05,20,13,26,15.80
2016,05,20,13,27,15.80
2016,05,20,13,28,15.90
2016,05,20,13,29,15.90
2016,05,20,13,30,16.10
2016,05,20,13,31,16.20
2016,05,20,13,32,16.30
2016,05,20,13,33,16.50
2016,05,20,13,34,16.70
2016,05,20,13,35,17.00
2016,05,20,13,36,17.20
2016,05,20,13,37,17.10
2016,05,20,13,38,16.90
2016,05,20,13,39,16.70
2016,05,20,13,40,16.60
2016,05,20,13,41,16.60
2016,05,20,13,42,16.40
2016,05,20,13,43,16.40
2016,05,20,13,44,16.40
2016,05,20,13,45,16.40
2016,05,20,13,46,16.50
2016,05,20,13,47,16.40
2016,05,20,13,48,16.30
2016,05,20,13,49,16.20
2016,05,20,13,50,16.10
2016,05,20,13,51,15.90
2016,05,20,13,52,16.00
2016,05,20,13,53,16.10
2016,05,20,13,54,16.10
2016,05,20,13,55,16.00
2016,05,20,13,56,15.80
2016,05,20,13,57,15.60
2016,05,20,13,58,15.30
2016,05,20,13,59,15.10
2016,05,20,14,00,15.00
2016,05,20,14,01,14.90
2016,05,20,14,02,14.80
2016,05,20,14,03,14.80
2016,05,20,14,04,14.80
2016,05,20,14,05,14.80
2016,05,20,14,06,14.80
2016,05,20,14,07,14.90
2016,05,20,14,08,15.10
2016,05,20,14,09,15.20
2016,05,20,14,10,15.30
2016,05,20,14,11,15.30
2016,05,20,14,12,15.20
2016,05,20,14,13,15.30
2016,05,20,14,14,15.30
2016,05,20,14,15,15.30
2016,05,20,14,16,15.40
2016,05,20,14,17,15.50
2016,05,20,14,18,15.50
2016,05,20,14,19,15.50
2016,05,20,14,20,15.40
2016,05,20,14,21,15.30
2016,05,20,14,22,15.20
2016,05,20,14,23,15.00
2016,05,20,14,24,15.00
2016,05,20,14,25,15.00
2016,05,20,14,26,15.10
2016,05,20,14,27,15.10
2016,05,20,14,28,15.10
2016,05,20,14,29,15.10
2016,05,20,14,30,15.20
2016,05,20,14,31,15.00
2016,05,20,14,32,15.00
2016,05,20,14,33,15.10
2016,05,20,14,34,15.30
2016,05,20,14,35,15.30
2016,05,20,14,36,15.30
2016,05,20,14,37,15.30
2016,05,20,14,38,15.30
2016,05,20,14,39,15.30
2016,05,20,14,40,15.30
2016,05,20,14,41,15.30
2016,05,20,14,42,15.30
2016,05,20,14,43,15.40
2016,05,20,14,44,15.40
2016,05,20,14,45,15.50
2016,05,20,14,46,15.70
2016,05,20,14,47,15.80
2016,05,20,14,48,15.90
2016,05,20,14,49,15.90
2016,05,20,14,50,15.90
2016,05,20,14,51,16.00
2016,05,20,14,52,16.10
2016,05,20,14,53,15.90
2016,05,20,14,54,15.90
2016,05,20,14,55,15.90
2016,05,20,14,56,15.90
2016,05,20,14,57,16.00
2016,05,20,14,58,16.10
2016,05,20,14,59,16.10
2016,05,20,15,00,16.20
2016,05,20,15,01,16.30
2016,05,20,15,02,16.20
2016,05,20,15,03,16.10
2016,05,20,15,04,16.10
2016,05,20,15,05,16.10
2016,05,20,15,06,16.00
2016,05,20,15,07,16.00
2016,05,20,15,08,16.10
2016,05,20,15,09,16.10
2016,05,20,15,10,16.20
2016,05,20,15,11,16.30
2016,05,20,15,12,16.20
2016,05,20,15,13,16.20
2016,05,20,15,14,16.20
2016,05,20,15,15,15.90
2016,05,20,15,16,15.60
2016,05,20,15,17,15.50
2016,05,20,15,18,15.40
2016,05,20,15,19,15.50
2016,05,20,15,20,15.50
2016,05,20,15,21,15.50
2016,05,20,15,22,15.60
2016,05,20,15,23,15.70
2016,05,20,15,24,15.90
2016,05,20,15,25,16.10
2016,05,20,15,26,16.10
2016,05,20,15,27,16.20
2016,05,20,15,28,16.20
2016,05,20,15,29,16.20
2016,05,20,15,30,16.30
2016,05,20,15,31,16.40
2016,05,20,15,32,16.50
2016,05,20,15,33,16.60
2016,05,20,15,34,16.60
2016,05,20,15,35,16.60
2016,05,20,15,36,16.60
2016,05,20,15,37,16.70
2016,05,20,15,38,16.70
2016,05,20,15,39,16.60
2016,05,20,15,40,16.60
2016,05,20,15,41,16.60
2016,05,20,15,42,16.40
2016,05,20,15,43,16.30
2016,05,20,15,44,16.20
2016,05,20,15,45,16.30
2016,05,20,15,46,16.40
2016,05,20,15,47,16.40
2016,05,20,15,48,16.40
2016,05,20,15,49,16.40
2016,05,20,15,50,16.40
2016,05,20,15,51,16.30
2016,05,20,15,52,16.20
2016,05,20,15,53,16.10
2016,05,20,15,54,16.10
2016,05,20,15,55,16.10
2016,05,20,15,56,16.10
2016,05,20,15,57,16.10
2016,05,20,15,58,16.10
2016,05,20,15,59,16.20
2016,05,20,16,00,16.30
2016,05,20,16,01,16.40
2016,05,20,16,02,16.40
2016,05,20,16,03,16.50
2016,05,20,16,04,16.70
2016,05,20,16,05,16.80
2016,05,20,16,06,16.90
2016,05,20,16,07,16.90
2016,05,20,16,08,17.00
2016,05,20,16,09,17.10
2016,05,20,16,10,17.10
2016,05,20,16,11,17.00
2016,05,20,16,12,16.90
2016,05,20,16,13,16.80
2016,05,20,16,14,16.70
2016,05,20,16,15,16.80
2016,05,20,16,16,16.90
2016,05,20,16,17,16.90
2016,05,20,16,18,17.10
2016,05,20,16,19,17.20
2016,05,20,16,20,17.30
2016,05,20,16,21,17.40
2016,05,20,16,22,17.40
2016,05,20,16,23,17.40
2016,05,20,16,24,17.50
2016,05,20,16,25,17.40
2016,05,20,16,26,17.50
2016,05,20,16,27,17.40
2016,05,20,16,28,17.40
2016,05,20,16,29,17.40
2016,05,20,16,30,17.40
2016,05,20,16,31,17.40
2016,05,20,16,32,17.40
2016,05,20,16,33,17.30
2016,05,20,16,34,17.30
2016,05,20,16,35,17.30
2016,05,20,16,36,17.30
2016,05,20,16,37,17.10
2016,05,20,16,38,17.00
2016,05,20,16,39,16.90
2016,05,20,16,40,16.90
2016,05,20,16,41,16.80
2016,05,20,16,42,16.80
2016,05,20,16,43,16.70
2016,05,20,16,44,16.70
2016,05,20,16,45,16.70
2016,05,20,16,46,16.70
2016,05,20,16,47,16.70
2016,05,20,16,48,16.70
2016,05,20,16,49,16.80
2016,05,20,16,50,16.80
2016,05,20,16,51,16.70
2016,05,20,16,52,16.70
2016,05,20,16,53,16.70
2016,05,20,16,54,16.70
2016,05,20,16,55,16.70
2016,05,20,16,56,16.60
2016,05,20,16,57,16.60
2016,05,20,16,58,16.60
2016,05,20,16,59,16.60
2016,05,20,17,00,16.70
2016,05,20,17,01,16.80
2016,05,20,17,02,16.90
2016,05,20,17,03,17.00
2016,05,20,17,04,17.10
2016,05,20,17,05,17.20
2016,05,20,17,06,17.20
2016,05,20,17,07,17.30
2016,05,20,17,08,17.30
2016,05,20,17,09,17.30
2016,05,20,17,10,17.30
2016,05,20,17,11,17.30
2016,05,20,17,12,17.30
2016,05,20,17,13,17.40
2016,05,20,17,14,17.50
2016,05,20,17,15,17.60
2016,05,20,17,16,17.70
2016,05,20,17,17,17.70
2016,05,20,17,18,17.70
2016,05,20,17,19,17.60
2016,05,20,17,20,17.50
2016,05,20,17,21,17.50
2016,05,20,17,22,17.50
2016,05,20,17,23,17.50
2016,05,20,17,24,17.60
2016,05,20,17,25,17.70
2016,05,20,17,26,17.80
2016,05,20,17,27,17.90
2016,05,20,17,28,17.90
2016,05,20,17,29,17.90
2016,05,20,17,30,17.90
2016,05,20,17,31,18.10
2016,05,20,17,32,18.10
2016,05,20,17,33,18.10
2016,05,20,17,34,18.10
2016,05,20,17,35,18.10
2016,05,20,17,36,18.10